Regional Weather Roundup
Issued by NWS Newport/Morehead, NC

Current Version | Previous Version | Text Only | Print | Product List | Glossary On
Versions: 1 2 3 4 5 6 7 8 9 10 11 12 13 14 15 16 17 18 19 20 21 22 23 24 25 26 27 28 29 30 31 32 33 34 35 36 37 38 39 40 41 42 43 44 45 46 47 48 49 50
000
ASUS42 KMHX 271325
RWRMHX
WEATHER ROUNDUP FOR EASTERN NORTH CAROLINA
NATIONAL WEATHER SERVICE NEWPORT/MOREHEAD CITY NC
900 AM EDT THU AUG 27 2015

NOTE: "FAIR" INDICATES FEW OR NO CLOUDS BELOW 12,000 FEET
WITH NO SIGNIFICANT WEATHER AND/OR OBSTRUCTIONS TO VISIBILITY

NCZ015>017-031-032-045>047-102-103-271400-
NORTH COAST

CITY           SKY/WX    TMP DP  RH WIND       PRES   REMARKS
EDENTON        CLOUDY    73  63  72 NE5       30.05S
ELIZABETH CITY CLOUDY    76  65  68 NE10      30.05F
KITTY HAWK     CLOUDY    77  65  66 NE9G17    30.02S
MANTEO         CLOUDY    77  66  68 NE15G21   30.03S

$$

NCZ045>047-081-094-103-104-271400-
CENTRAL COAST

CITY           SKY/WX    TMP DP  RH WIND       PRES   REMARKS
FRISCO         CLOUDY    75  73  93 E6        30.00S
SWANQUARTER    NOT AVBL

$$

NCZ095-097-098-100-101-271400-
SOUTHERN COAST

CITY           SKY/WX    TMP DP  RH WIND       PRES   REMARKS
BEAUFORT       CLOUDY    73  73 100 NE8       30.00S
CEDAR ISLAND   NOT AVBL
JACKSONVILLE   CLOUDY    71  68  90 N8        30.01S
PINEY ISLAND   CLOUDY   N/A N/A N/A NE10      30.01R
WILMINGTON     CLOUDY    73  71  93 NE8       30.00R


$$

NCZ011>013-027>030-043-044-078>080-089-090>093-098-271400-
COASTAL PLAIN

CITY           SKY/WX    TMP DP  RH WIND       PRES   REMARKS
AHOSKIE        CLOUDY    71  62  73 N7        30.09R
CLINTON        CLOUDY    73  66  78 NE12G17   30.05R
ELIZABETHTOWN  CLOUDY    73  69  87 CALM      30.02R
GOLDSBORO      CLOUDY    71  66  85 NE10      30.04R
GREENVILLE     CLOUDY    70  66  88 N8        30.08R
HAVELOCK       TSTM      72  70  93 W17       30.04R FOG
KENANSVILLE      N/A     70  67  91 NE3       30.05R
KINSTON        CLOUDY    70  64  83 N7        30.05R
NEW BERN       TSTM      69  67  93 SW6       30.07R VSB 1/2
RICHLANDS      CLOUDY    70  64  83 CALM      30.03R
ROCKY MOUNT    CLOUDY    74  60  61 NE7       30.07R
WASHINGTON     CLOUDY    70  65  84 N5        30.05R
WHITEVILLE     CLOUDY    73  70  90 NE6       30.00R

$$

AMZ130-135-150-152-154-156-158-170-250-252-270-ANZ085-086-088-633-658-670-271400-
MARINE OBSERVATIONS

STATION/POSITION TIME  TEMP    WIND        PRES    WAVE   SWELL
                       AIR SEA DIR/SP/G            HT/PER HT/PER
                 (UTC) (F)     (DEG/KT/KT) (MB)    (FT/S) (FT/S)
CHESAPEAKE LIGHT 1300   75      40/ 16/ 18 1018.6
64 E VA BEACH    1250   77 80   40/ 17/ 19 1016.7    5/ 5   2/10
DUCK             1200   78 79   40/ 20/ 23 1016.5
2 E DUCK         1211      79                N/A     5/ 5   2/12
OREGON INLET     1200   76 79   40/ 13/ 16 1016.9
13E OREGON INLT  1300      80                N/A     6/ 5   2/11
HATTERAS CG      1200   78 82   40/ 10/ 16 1015.3
DIAMOND BUOY     1250   81 82   80/ 12/ 14 1015.2    4/11   3/11
CAPE LOOKOUT     1300   76      20/ 11/ 14 1015.6
BEAUFORT LAB     1200   74 81   20/  7/  9 1014.9
30 SE NEW RVR IN 1208   78 82   30/  6/  8 1015.1
30 SE NEW RVR IN 1225      82                N/A     3/10   2/11
27 SE WRIGHTSVLE 1300   76 82   20/  8/ 10   N/A
5 SE WRIGHTSVLE  1208   78 83   90/  8/ 12 1015.0
225 S CAPE HAT   1250   76 84  270/ 14/ 17 1016.0    4/10   3/10
41 SE CHARLESTON 1250   81 84  140/ 14/ 17 1013.4    2/10   2/10

$$


USA.gov is the U.S. government's official web portal to all federal, state and local government web resources and services.